Satellite-Ground Cal/Val Site Overpasses Predictions

Prediction of Satellite NPP Overpassing Cal/Val Site: Antarctic Dome C

Ground Cal/Val Site Location: Latitude: -75.10, Longitude: 123.35; Satellite-Ground Site NADIR distance within 100 km.

Table of predicted overpasses for the next 14.0 days since TLE Epoch: 11/26/2014
Interval Starting Time Ending Time Minimum Distance Time Minimum Distance (km)
1 11/27/2014 14:50:44 11/27/2014 14:51:08 11/27/2014 14:50:56 55.10
2 11/28/2014 07:52:26 11/28/2014 07:52:44 11/28/2014 07:52:35 77.92
3 11/29/2014 07:33:30 11/29/2014 07:33:58 11/29/2014 07:33:44 29.85
4 12/01/2014 15:15:54 12/01/2014 15:16:04 12/01/2014 15:15:59 92.14
5 12/02/2014 14:56:54 12/02/2014 14:57:23 12/02/2014 14:57:09 19.31
6 12/04/2014 07:39:42 12/04/2014 07:40:11 12/04/2014 07:39:56 7.44
7 12/07/2014 15:03:05 12/07/2014 15:03:34 12/07/2014 15:03:19 17.79
8 12/08/2014 14:44:24 12/08/2014 14:44:36 12/08/2014 14:44:30 89.55
9 12/09/2014 07:45:55 12/09/2014 07:46:21 12/09/2014 07:46:08 43.15


<
